When you browse on this site, cookies collect data to enhance your experience and personalize the content and advertising you see.
Visit our Privacy Policy to learn more. By continuing to use the site, you agree to this use of cookies and data.

Stündliche Wetter Manama

Heute, 8 Juli, Mittwoch

Zeit Temperatur Niederschläge Wind Luftdruck Luftfeuchtigkeit
00:00 +38°C° 0 mm 2 m/S 746 mmHg 51%
01:00 +38°C° 0 mm 2 m/S 746 mmHg 52%
02:00 +38°C° 0 mm 2 m/S 746 mmHg 53%
03:00 +37°C° 0 mm 2 m/S 746 mmHg 55%
04:00 +37°C° 0 mm 2 m/S 747 mmHg 56%
05:00 +37°C° 0 mm 2 m/S 747 mmHg 56%
06:00 +36°C° 0 mm 1 m/S 747 mmHg 57%
07:00 +38°C° 0 mm 2 m/S 748 mmHg 55%
08:00 +38°C° 0 mm 2 m/S 748 mmHg 53%
09:00 +38°C° 0 mm 3 m/S 748 mmHg 51%
10:00 +39°C° 0 mm 3 m/S 748 mmHg 51%
11:00 +39°C° 0 mm 3 m/S 748 mmHg 51%
12:00 +39°C° 0 mm 3 m/S 748 mmHg 51%
13:00 +40°C° 0 mm 4 m/S 747 mmHg 52%
14:00 +40°C° 0 mm 5 m/S 747 mmHg 53%
15:00 +40°C° 0 mm 6 m/S 747 mmHg 54%
16:00 +39°C° 0 mm 6 m/S 747 mmHg 55%
17:00 +39°C° 0 mm 7 m/S 747 mmHg 56%
18:00 +39°C° 0 mm 8 m/S 746 mmHg 57%
19:00 +39°C° 0 mm 7 m/S 747 mmHg 60%
20:00 +38°C° 0 mm 6 m/S 747 mmHg 62%
21:00 +37°C° 0 mm 5 m/S 747 mmHg 64%
22:00 +37°C° 0 mm 5 m/S 747 mmHg 64%
23:00 +37°C° 0 mm 4 m/S 747 mmHg 63%

Morgen, 9 Juli, Donnerstag

Zeit Temperatur Niederschläge Wind Luftdruck Luftfeuchtigkeit
00:00 +37°C° 0 mm 4 m/S 747 mmHg 63%
01:00 +36°C° 0 mm 4 m/S 747 mmHg 65%
02:00 +36°C° 0 mm 3 m/S 747 mmHg 66%
03:00 +36°C° 0 mm 2 m/S 747 mmHg 68%
04:00 +36°C° 0 mm 3 m/S 747 mmHg 66%
05:00 +36°C° 0 mm 3 m/S 747 mmHg 65%
06:00 +36°C° 0 mm 3 m/S 748 mmHg 64%
07:00 +36°C° 0 mm 2 m/S 748 mmHg 63%
08:00 +37°C° 0 mm 2 m/S 748 mmHg 63%
09:00 +36°C° 0 mm 1 m/S 749 mmHg 63%
10:00 +37°C° 0 mm 2 m/S 748 mmHg 61%
11:00 +38°C° 0 mm 3 m/S 748 mmHg 59%
12:00 +38°C° 0 mm 3 m/S 748 mmHg 58%
13:00 +38°C° 0 mm 4 m/S 748 mmHg 60%
14:00 +38°C° 0 mm 4 m/S 747 mmHg 61%
15:00 +38°C° 0 mm 4 m/S 747 mmHg 63%
16:00 +39°C° 0 mm 5 m/S 747 mmHg 62%
17:00 +39°C° 0 mm 5 m/S 747 mmHg 62%
18:00 +39°C° 0 mm 5 m/S 747 mmHg 61%
19:00 +39°C° 0 mm 5 m/S 747 mmHg 60%
20:00 +39°C° 0 mm 6 m/S 747 mmHg 58%
21:00 +39°C° 0 mm 6 m/S 747 mmHg 57%
22:00 +39°C° 0 mm 5 m/S 747 mmHg 56%
23:00 +38°C° 0 mm 4 m/S 746 mmHg 55%

übermorgen, 10 Juli, Freitag

Zeit Temperatur Niederschläge Wind Luftdruck Luftfeuchtigkeit
00:00 +38°C° 0 mm 3 m/S 746 mmHg 54%
01:00 +38°C° 0 mm 3 m/S 746 mmHg 55%
02:00 +37°C° 0 mm 3 m/S 746 mmHg 56%
03:00 +37°C° 0 mm 3 m/S 746 mmHg 58%
04:00 +37°C° 0 mm 2 m/S 746 mmHg 60%
05:00 +36°C° 0 mm 1 m/S 747 mmHg 63%
06:00 +34°C° 0 mm 0 m/S 747 mmHg 65%
07:00 +34°C° 0 mm 0 m/S 747 mmHg 63%
08:00 +37°C° 0 mm 1 m/S 748 mmHg 60%
09:00 +37°C° 0 mm 1 m/S 748 mmHg 58%
10:00 +37°C° 0 mm 1 m/S 748 mmHg 56%
11:00 +39°C° 0 mm 2 m/S 748 mmHg 54%
12:00 +39°C° 0 mm 2 m/S 747 mmHg 52%
13:00 +39°C° 0 mm 3 m/S 747 mmHg 51%
14:00 +41°C° 0 mm 4 m/S 746 mmHg 49%
15:00 +41°C° 0 mm 4 m/S 746 mmHg 48%
16:00 +40°C° 0 mm 4 m/S 746 mmHg 49%
17:00 +40°C° 0 mm 4 m/S 746 mmHg 50%
18:00 +39°C° 0 mm 3 m/S 746 mmHg 51%
19:00 +39°C° 0 mm 3 m/S 746 mmHg 51%
20:00 +39°C° 0 mm 2 m/S 746 mmHg 52%
21:00 +39°C° 0 mm 2 m/S 746 mmHg 52%
22:00 +38°C° 0 mm 3 m/S 746 mmHg 52%
23:00 +38°C° 0 mm 4 m/S 746 mmHg 51%

11 Juli, Samstag

Zeit Temperatur Niederschläge Wind Luftdruck Luftfeuchtigkeit
00:00 +39°C° 0 mm 5 m/S 745 mmHg 50%
01:00 +38°C° 0 mm 4 m/S 745 mmHg 53%
02:00 +38°C° 0 mm 3 m/S 745 mmHg 55%
03:00 +37°C° 0 mm 2 m/S 745 mmHg 57%
04:00 +38°C° 0 mm 3 m/S 745 mmHg 55%
05:00 +38°C° 0 mm 3 m/S 746 mmHg 53%
06:00 +38°C° 0 mm 3 m/S 746 mmHg 51%
07:00 +38°C° 0 mm 3 m/S 746 mmHg 51%
08:00 +38°C° 0 mm 3 m/S 747 mmHg 51%
09:00 +39°C° 0 mm 3 m/S 747 mmHg 50%
10:00 +39°C° 0 mm 3 m/S 747 mmHg 51%
11:00 +39°C° 0 mm 2 m/S 746 mmHg 52%
12:00 +39°C° 0 mm 1 m/S 746 mmHg 52%
13:00 +39°C° 0 mm 2 m/S 746 mmHg 51%
14:00 +40°C° 0 mm 3 m/S 745 mmHg 49%
15:00 +41°C° 0 mm 4 m/S 745 mmHg 47%
16:00 +40°C° 0 mm 3 m/S 745 mmHg 49%
17:00 +39°C° 0 mm 2 m/S 744 mmHg 52%
18:00 +39°C° 0 mm 1 m/S 744 mmHg 54%
19:00 +39°C° 0 mm 2 m/S 745 mmHg 51%
20:00 +39°C° 0 mm 3 m/S 745 mmHg 49%
21:00 +40°C° 0 mm 4 m/S 745 mmHg 46%
22:00 +38°C° 0 mm 4 m/S 745 mmHg 51%
23:00 +38°C° 0 mm 3 m/S 745 mmHg 57%

12 Juli, Sonntag

Zeit Temperatur Niederschläge Wind Luftdruck Luftfeuchtigkeit
00:00 +37°C° 0 mm 3 m/S 745 mmHg 62%
01:00 +37°C° 0 mm 2 m/S 744 mmHg 61%
02:00 +37°C° 0 mm 2 m/S 744 mmHg 59%
03:00 +37°C° 0 mm 2 m/S 744 mmHg 58%
04:00 +37°C° 0 mm 2 m/S 744 mmHg 58%
05:00 +37°C° 0 mm 2 m/S 744 mmHg 58%
06:00 +37°C° 0 mm 3 m/S 745 mmHg 59%
07:00 +38°C° 0 mm 3 m/S 745 mmHg 57%
08:00 +38°C° 0 mm 3 m/S 746 mmHg 56%
09:00 +38°C° 0 mm 3 m/S 746 mmHg 54%
10:00 +38°C° 0 mm 2 m/S 746 mmHg 54%
11:00 +39°C° 0 mm 2 m/S 746 mmHg 55%
12:00 +39°C° 0 mm 1 m/S 745 mmHg 55%
13:00 +39°C° 0 mm 2 m/S 745 mmHg 54%
14:00 +39°C° 0 mm 2 m/S 745 mmHg 53%
15:00 +39°C° 0 mm 2 m/S 745 mmHg 52%
16:00 +39°C° 0 mm 2 m/S 744 mmHg 53%
17:00 +39°C° 0 mm 2 m/S 744 mmHg 54%
18:00 +39°C° 0 mm 2 m/S 744 mmHg 55%
19:00 +38°C° 0 mm 2 m/S 745 mmHg 55%
20:00 +38°C° 0 mm 2 m/S 745 mmHg 55%
21:00 +38°C° 0 mm 2 m/S 745 mmHg 55%
22:00 +38°C° 0 mm 2 m/S 745 mmHg 54%
23:00 +38°C° 0 mm 2 m/S 744 mmHg 53%

13 Juli, Montag

Zeit Temperatur Niederschläge Wind Luftdruck Luftfeuchtigkeit
00:00 +39°C° 0 mm 2 m/S 744 mmHg 52%
01:00 +39°C° 0 mm 3 m/S 744 mmHg 52%
02:00 +40°C° 0 mm 4 m/S 744 mmHg 52%
03:00 +40°C° 0 mm 5 m/S 744 mmHg 52%
04:00 +39°C° 0 mm 5 m/S 744 mmHg 53%
05:00 +39°C° 0 mm 5 m/S 744 mmHg 55%
06:00 +39°C° 0 mm 5 m/S 745 mmHg 56%
07:00 +40°C° 0 mm 5 m/S 745 mmHg 54%
08:00 +40°C° 0 mm 5 m/S 745 mmHg 52%
09:00 +41°C° 0 mm 4 m/S 745 mmHg 51%
10:00 +41°C° 0 mm 4 m/S 745 mmHg 50%
11:00 +41°C° 0 mm 4 m/S 745 mmHg 49%
12:00 +41°C° 0 mm 4 m/S 745 mmHg 48%
13:00 +41°C° 0 mm 4 m/S 744 mmHg 48%
14:00 +41°C° 0 mm 5 m/S 744 mmHg 47%
15:00 +41°C° 0 mm 5 m/S 744 mmHg 46%
16:00 +41°C° 0 mm 5 m/S 744 mmHg 47%
17:00 +41°C° 0 mm 4 m/S 744 mmHg 48%
18:00 +40°C° 0 mm 3 m/S 744 mmHg 48%
19:00 +40°C° 0 mm 3 m/S 744 mmHg 46%
20:00 +41°C° 0 mm 4 m/S 744 mmHg 44%
21:00 +41°C° 0 mm 4 m/S 744 mmHg 41%
22:00 +41°C° 0 mm 5 m/S 744 mmHg 43%
23:00 +41°C° 0 mm 5 m/S 744 mmHg 45%
Mehr zeigen